Temperature
15 15 15 16 13 12 14 15 16 17 17 18 17 16 14 14 15 15 13 13 14 14 15 15 15 16 16 16 16 17 17 17 17 17 17 17 17 17 17 17 17 17 17 17 17 17 17 16 16
14 15 15 15 12 13 14 15 16 16 17 18 17 16 14 13 13 13 13 13 14 14 14 15 15 15 16 16 16 16 17 17 17 17 17 17 17 17 17 17 17 17 17 17 17 16 16 16 16
14 15 15 12 12 13 15 15 15 16 17 17 16 15 14 13 13 13 13 13 14 14 14 15 15 15 15 15 16 16 16 16 17 17 17 17 17 17 17 17 17 17 16 16 16 16 16 16 16
15 15 14 12 14 14 15 15 15 16 17 17 16 13 13 13 13 13 13 13 14 14 14 14 14 14 15 15 15 15 16 16 16 16 16 16 16 16 16 16 16 16 16 16 16 16 16 16 16
14 14 12 12 14 14 14 15 16 16 16 16 15 12 12 13 13 13 13 13 13 14 13 14 14 14 14 14 15 15 15 15 16 16 16 16 16 16 16 16 16 16 16 16 16 16 16 16 16
14 11 11 12 13 14 14 15 15 14 15 15 14 12 12 12 13 13 13 13 13 13 13 13 13 14 14 14 14 14 15 15 15 15 15 16 16 16 16 16 16 16 16 16 16 16 16 15 15
12 10 11 13 13 14 14 15 14 13 14 14 14 12 11 12 12 12 12 12 13 13 13 13 13 13 13 13 14 14 14 14 14 14 15 15 15 15 15 15 15 15 16 15 15 15 15 15 15
13 10 13 13 13 13 14 14 14 14 14 14 14 12 11 12 12 12 12 12 12 12 12 12 12 13 13 13 13 13 13 14 14 14 14 14 14 14 15 15 15 15 15 15 15 15 15 15 15
13 10 11 12 13 13 13 13 14 14 14 14 13 14 13 12 12 12 12 12 12 12 12 12 12 12 12 12 12 13 13 13 13 13 13 13 13 14 14 14 14 14 14 14 15 14 14 14 14
12 9 11 12 12 12 13 13 13 13 12 12 13 13 13 12 12 12 12 11 11 11 11 11 11 11 12 12 12 12 12 12 12 13 13 13 13 13 13 13 13 13 14 14 14 14 14 14 14
11 10 11 11 12 12 12 12 13 12 11 12 12 13 12 12 12 12 11 11 11 11 11 11 11 11 11 11 11 11 12 12 12 12 12 12 12 12 12 12 13 13 13 13 13 13 13 13 14
11 11 11 11 12 12 11 12 12 12 12 13 13 13 12 12 12 11 11 11 11 11 11 11 11 11 11 11 11 11 11 11 11 11 11 11 11 11 12 12 12 12 12 12 13 13 13 13 13
10 10 11 11 11 11 11 11 11 11 12 12 12 12 12 12 12 11 11 11 11 11 10 10 10 10 10 10 10 10 10 10 10 10 10 10 10 11 11 11 11 11 11 11 12 12 12 12 12
10 10 10 11 11 11 10 10 10 11 12 12 12 12 12 12 11 11 11 11 10 10 10 10 10 10 10 10 10 10 10 9 9 9 9 9 9 10 10 10 10 10 10 11 11 11 11 11 12
10 10 10 10 10 10 10 9 9 12 12 12 12 12 12 12 11 11 11 11 10 10 10 10 10 9 9 9 9 9 9 9 9 9 9 9 9 9 9 9 9 9 9 10 10 10 10 10 11
10 9 9 10 9 10 9 9 10 12 11 11 12 12 12 11 11 11 11 11 10 10 10 9 9 9 9 9 9 8 8 8 8 8 8 8 8 8 8 8 9 9 9 9 9 9 9 10 10
8 8 9 9 9 9 9 8 9 11 11 11 11 11 11 11 11 11 11 10 10 10 10 9 9 9 9 9 8 8 8 8 8 8 8 8 8 8 7 7 8 8 8 8 8 8 8 9 9
8 7 9 9 9 8 8 8 8 10 10 10 11 11 11 11 11 11 11 10 10 10 9 9 9 8 8 8 8 8 8 8 7 7 7 7 7 7 7 7 7 7 7 7 7 8 8 8 8
8 8 8 9 9 8 7 8 8 9 9 9 9 10 11 11 11 11 10 10 10 9 9 9 8 8 8 8 7 7 7 7 7 7 7 7 7 7 6 6 6 6 6 7 7 7 7 7 7
8 8 8 8 8 8 7 7 7 8 8 9 9 10 11 11 10 10 10 10 10 9 9 8 8 8 8 7 7 7 7 7 7 6 6 6 6 6 6 6 6 6 6 6 6 6 6 6 6
7 7 7 7 7 7 7 7 8 8 9 9 10 10 11 11 10 10 10 10 9 9 9 8 8 8 7 7 7 7 6 6 6 6 6 6 6 6 5 5 5 5 5 5 5 5 5 6 6
7 7 7 7 6 5 6 6 7 7 8 8 8 9 10 10 10 10 10 9 9 9 8 8 8 7 7 7 6 6 6 6 6 5 5 5 5 5 5 5 5 5 5 5 5 5 5 5 5
7 7 7 6 5 4 4 4 6 7 7 7 7 9 10 10 10 10 9 9 9 8 8 8 7 7 7 6 6 6 5 5 5 5 5 5 5 5 5 5 4 4 4 4 4 4 4 5 5
6 6 5 3 3 5 5 4 6 6 7 8 7 8 10 10 10 9 9 9 8 8 8 7 7 7 6 6 6 5 5 5 4 4 4 4 4 4 4 4 4 4 4 4 4 4 4 4 5
6 5 5 5 4 5 5 4 5 6 7 7 7 8 9 9 9 9 9 8 8 8 7 7 7 6 6 6 5 5 5 4 4 4 4 4 4 4 4 3 3 3 3 4 4 4 4 4 4
5 5 5 6 5 5 5 5 6 7 7 8 9 9 9 9 9 8 8 8 8 8 7 6 6 6 5 5 5 5 4 4 4 4 3 3 3 3 3 3 3 3 3 3 3 3 4 4 4
4 4 4 3 3 4 4 4 5 7 7 7 7 8 8 8 8 8 8 8 7 7 7 6 6 5 5 5 4 4 4 4 4 3 3 3 3 3 3 3 3 3 3 3 3 3 3 4 4
4 3 3 3 4 5 4 4 5 7 7 6 6 6 8 8 8 8 8 7 7 7 6 6 5 5 5 4 4 4 4 3 3 3 3 3 3 2 2 2 2 2 2 2 3 3 3 3 3
4 3 3 2 2 3 4 5 6 6 6 6 5 7 8 8 8 7 7 7 6 6 6 5 5 4 4 4 4 3 3 3 3 2 2 2 2 2 2 2 2 2 2 2 2 2 2 3 3
3 3 2 3 2 1 2 4 6 5 5 5 6 7 8 8 7 7 7 6 6 6 5 5 4 4 4 4 3 3 3 3 2 2 2 2 2 2 2 2 2 2 2 2 2 2 2 2 3
Wind_Speed
9 7 2 4 5 4 2 4 1 1 2 1 3 8 9 6 4 6 5 2 3 3 5 7 9 10 11 11 11 12 11 10 9 8 7 6 5 5 4 3 2 2 3 4 5 6 6 6 6
5 3 4 5 5 2 4 3 2 2 2 3 5 7 8 6 4 7 2 0 4 5 6 7 9 10 10 11 11 11 11 11 9 8 7 6 5 4 3 3 2 1 2 3 4 5 5 6 6
4 1 4 4 4 6 5 3 5 2 2 3 5 6 6 5 4 4 2 3 5 6 7 8 10 10 10 10 11 10 10 10 10 9 8 7 6 4 4 3 2 1 1 2 3 4 5 6 7
3 4 4 4 4 4 5 4 4 3 4 5 5 6 4 2 3 4 3 6 7 5 7 8 10 10 10 10 10 10 11 10 10 10 8 7 6 6 5 4 3 2 2 2 2 4 5 6 7
4 4 3 1 4 2 2 3 2 3 3 3 5 6 4 3 3 5 5 7 7 4 7 9 10 10 11 11 10 10 10 10 10 10 10 8 8 7 6 5 4 4 3 3 3 4 5 6 7
4 4 4 4 4 2 2 2 2 3 3 3 5 6 3 1 3 4 5 6 6 5 6 8 9 9 10 10 10 10 10 10 10 10 10 10 9 9 8 7 6 5 5 4 4 4 5 6 7
4 4 5 5 4 3 2 1 3 3 3 2 4 6 2 2 2 4 6 6 5 6 6 7 8 8 9 9 9 10 10 9 10 10 10 11 11 10 9 8 7 6 6 5 5 5 5 6 7
5 4 3 2 4 4 2 2 2 3 2 1 4 7 5 6 3 5 6 6 5 4 4 5 7 8 8 8 9 10 10 10 10 10 10 11 11 11 10 9 8 7 6 6 6 6 6 6 7
4 4 3 3 5 4 0 2 2 1 3 2 2 4 6 6 4 6 5 4 3 3 2 3 4 6 6 7 8 9 9 10 10 9 10 10 9 9 8 9 9 9 8 7 7 7 7 7 7
4 4 4 2 3 3 1 1 1 2 2 1 2 2 4 5 6 5 4 3 2 1 1 2 2 3 4 5 6 7 7 8 8 8 8 8 8 8 8 9 10 10 9 8 7 7 7 6 5
4 5 3 1 1 2 1 0 0 3 3 6 6 6 5 5 4 5 4 4 3 2 1 1 1 2 2 2 3 4 5 6 7 8 7 7 7 7 7 7 8 8 8 6 6 5 5 4 3
3 2 3 3 1 2 1 1 1 4 6 6 8 9 7 6 6 6 6 5 4 3 2 1 1 1 1 2 2 2 3 4 4 6 7 5 4 4 4 4 5 5 6 5 4 3 4 4 4
2 2 1 2 2 2 2 3 3 6 6 5 5 6 8 7 6 6 6 5 4 3 2 2 1 1 1 1 2 2 2 2 3 4 5 5 3 3 3 3 4 4 5 4 3 3 4 4 4
2 1 1 3 3 3 3 4 4 9 6 6 7 8 9 9 7 5 5 5 4 4 3 2 2 2 1 1 2 2 2 2 3 4 5 5 4 3 3 4 4 4 4 4 4 4 5 5 4
2 1 3 4 4 3 1 6 8 8 6 7 7 7 8 7 7 8 7 6 5 4 4 3 3 2 1 2 2 2 2 2 3 4 6 6 5 4 3 3 4 4 6 5 4 4 4 5 5
3 2 3 4 5 4 4 7 7 6 7 8 8 7 7 7 8 8 7 6 6 4 4 4 3 2 2 2 3 2 3 3 3 4 5 6 6 5 4 4 4 6 5 4 4 4 4 5 5
1 2 3 3 3 3 5 8 7 4 7 9 9 8 7 6 6 6 6 6 6 5 4 4 3 3 3 3 3 3 3 3 4 5 5 6 7 7 4 4 5 5 4 4 5 4 4 5 6
5 4 4 4 3 3 6 11 11 7 8 10 10 8 8 8 9 7 6 6 5 5 4 4 4 4 3 2 2 2 3 3 4 4 5 7 7 7 5 5 5 5 4 4 4 5 5 5 6
5 4 4 4 2 3 9 13 14 10 8 10 9 9 9 9 7 5 5 5 4 3 3 3 3 3 2 2 2 3 3 4 4 4 6 7 7 7 6 5 5 5 5 6 6 5 6 5 4
3 3 3 4 3 3 7 13 12 8 8 9 10 10 9 7 5 5 4 4 4 4 4 4 4 4 4 3 3 3 4 4 5 5 6 7 8 8 7 6 6 6 6 6 6 5 5 5 3
4 5 4 3 5 4 5 8 6 4 3 5 7 8 8 9 9 7 5 5 4 5 5 5 5 5 5 5 3 3 3 3 3 5 5 6 8 8 8 8 7 7 6 7 7 7 7 7 5
4 4 4 2 2 4 2 5 7 5 4 5 6 6 7 8 8 8 7 6 5 6 5 5 5 5 5 4 3 4 4 5 6 5 6 7 8 9 9 9 8 8 7 8 8 8 7 7 7
5 2 3 2 2 3 1 3 9 4 6 8 8 8 8 8 8 8 7 7 5 5 4 4 5 5 5 5 5 5 6 6 6 6 7 8 7 8 9 9 8 8 8 8 9 9 8 8 9
5 5 5 5 4 3 5 6 8 5 7 6 6 7 7 7 7 6 5 4 4 4 4 4 4 5 5 5 5 6 7 8 8 8 8 7 7 7 8 8 8 9 8 9 9 10 10 10 10
4 5 3 3 2 6 3 5 10 8 7 7 7 7 7 6 6 5 5 4 4 4 4 4 5 6 6 6 6 7 8 9 9 9 8 8 8 7 9 9 8 8 9 10 10 10 10 11 11
5 7 7 6 5 5 2 7 8 7 6 5 5 5 5 5 5 6 6 6 5 5 5 5 6 6 6 6 7 7 8 7 7 9 9 9 8 9 9 9 10 10 10 11 10 10 11 10 10
6 5 4 5 2 3 6 7 9 3 1 2 3 4 5 5 5 5 5 5 5 5 6 6 6 7 7 7 8 8 8 8 9 10 9 9 9 9 10 10 10 10 10 11 11 10 11 10 10
4 7 5 5 5 5 6 6 5 5 5 4 4 5 5 5 4 4 5 5 5 5 5 5 6 7 8 7 8 8 8 9 9 9 10 10 11 10 10 11 11 10 10 11 11 11 11 11 11
5 4 4 4 4 5 4 7 6 6 6 6 7 6 6 6 5 5 5 5 5 5 5 5 6 7 7 8 9 9 9 9 9 9 10 11 10 10 10 10 10 11 11 10 10 12 12 12 12
5 7 7 5 5 5 4 8 6 5 4 5 6 5 5 5 5 5 5 5 4 5 5 5 6 7 8 8 8 9 9 9 9 10 11 10 10 9 10 10 10 11 11 10 11 12 12 13 13
Wind_Direction
340 340 65 61 63 61 229 255 232 68 63 40 81 96 100 88 102 142 199 235 118 99 58 54 49 44 40 38 38 38 36 36 37 37 39 41 46 54 63 70 107 148 165 172 174 175 174 169 168
341 358 59 64 99 141 254 268 201 193 183 144 87 87 82 77 80 113 172 124 107 90 63 54 52 46 42 38 36 35 34 31 29 30 29 27 28 34 42 45 60 109 181 188 190 187 177 172 171
338 65 84 86 138 181 201 216 184 165 51 95 74 61 87 106 112 133 177 127 92 75 61 53 52 47 41 36 34 32 30 27 24 22 23 17 14 13 18 14 4 349 266 208 207 201 188 183 183
53 56 62 93 202 226 189 198 182 134 51 52 91 69 66 43 138 151 131 104 90 71 56 51 50 42 37 34 31 29 26 22 20 19 17 14 7 4 358 356 346 320 286 253 221 213 202 196 194
64 82 92 156 221 232 204 223 182 113 89 57 92 95 78 352 95 115 103 100 95 75 58 51 46 39 34 30 27 25 22 19 18 16 13 8 4 359 352 344 338 326 299 265 245 231 220 210 204
64 80 120 197 208 202 271 298 100 89 90 74 92 106 136 263 98 101 99 101 100 87 64 55 46 37 29 25 25 22 19 17 16 13 10 8 2 356 347 340 332 322 310 285 258 249 239 227 214
112 122 171 189 176 191 231 26 99 119 100 91 120 116 152 259 174 110 101 100 90 81 69 51 42 35 26 22 21 20 15 12 10 8 7 5 2 356 349 340 335 325 316 301 281 261 252 240 227
126 120 179 194 176 196 274 57 90 113 140 2 108 140 183 219 186 97 91 90 86 77 67 51 40 34 25 18 15 13 11 9 6 6 5 3 359 352 348 343 336 328 321 312 298 276 264 247 241
97 92 189 199 176 184 245 87 11 84 96 44 71 160 183 166 128 95 85 66 69 64 55 50 38 30 23 20 14 10 7 7 4 0 358 358 355 350 345 342 338 332 323 315 308 292 280 259 246
96 158 203 196 172 165 117 114 169 85 64 75 57 70 126 133 126 120 128 131 116 77 43 59 48 30 24 17 10 7 3 1 359 357 355 354 351 347 343 339 335 333 327 318 310 305 293 273 256
140 178 178 165 145 128 116 358 319 148 215 201 182 176 159 145 143 151 167 171 175 178 151 56 68 33 25 12 7 6 359 355 352 352 351 350 348 345 343 343 336 332 329 326 317 311 302 281 261
139 190 166 171 151 126 164 224 293 210 220 197 177 171 167 169 178 182 185 185 179 173 193 211 141 28 2 8 353 360 357 351 347 342 343 348 347 341 338 336 329 328 325 321 319 312 302 282 267
178 200 155 183 180 195 210 235 252 247 233 195 179 176 182 189 197 201 187 180 178 183 197 209 207 227 321 356 334 351 329 326 329 331 332 331 325 305 314 317 320 318 317 307 297 290 288 281 269
165 167 246 227 218 219 221 257 243 252 217 196 195 198 200 200 200 192 185 189 194 199 209 218 224 227 237 283 288 295 307 311 318 323 315 315 315 306 295 305 305 304 311 300 278 275 274 271 268
93 43 313 243 210 211 178 274 233 236 188 198 211 212 210 207 196 194 195 194 198 204 213 229 235 234 245 266 274 296 295 299 302 300 306 305 302 297 290 285 293 299 307 305 291 281 272 274 269
70 63 284 263 190 174 160 261 257 214 186 211 221 224 218 211 201 201 196 193 196 194 210 237 255 265 260 257 268 276 284 284 286 289 293 296 292 289 286 274 280 294 299 293 286 276 276 276 271
58 196 239 275 194 173 195 247 265 227 202 221 225 224 215 213 212 207 196 191 194 195 206 228 241 247 256 262 266 266 275 273 280 283 286 288 292 286 278 265 275 292 284 276 287 284 265 273 280
196 205 232 242 230 202 233 255 267 257 225 227 227 219 210 207 214 204 195 192 195 199 207 223 238 243 252 271 285 288 285 278 282 278 276 280 288 289 278 267 266 272 270 271 274 280 274 262 272
164 174 225 248 245 239 247 264 270 263 240 231 226 217 210 212 214 198 192 190 192 205 220 232 242 256 258 283 286 288 285 283 282 272 271 274 276 279 272 269 263 259 257 259 263 272 274 271 270
184 201 247 283 311 266 278 277 273 256 229 219 212 212 207 206 201 200 196 193 202 215 227 235 238 248 248 248 252 253 265 271 271 273 277 271 270 273 277 263 260 257 260 261 258 261 263 270 255
213 201 212 244 328 348 327 303 285 280 242 213 205 205 203 198 198 200 204 214 215 223 227 237 243 248 253 253 266 292 304 302 292 283 274 271 272 269 267 262 257 253 250 255 255 247 253 259 254
218 203 184 176 17 300 18 296 285 275 275 236 221 211 210 206 200 201 204 216 224 231 233 238 247 252 256 253 249 258 275 279 275 276 273 276 271 267 264 260 254 252 251 250 252 248 249 244 253
191 145 131 128 127 320 267 221 282 281 251 240 228 222 215 206 200 203 208 215 228 231 233 242 250 256 259 252 244 250 264 269 278 284 280 277 272 267 264 259 254 251 250 251 250 249 248 241 242
134 76 64 54 71 288 221 191 274 240 222 226 221 218 214 207 204 208 213 218 235 240 241 245 251 264 266 261 257 253 262 271 281 284 282 280 275 269 263 264 257 252 250 250 249 246 246 245 243
115 107 50 349 335 250 204 204 251 249 231 212 209 210 210 203 198 205 215 224 233 243 250 254 255 267 271 269 266 262 261 262 265 272 274 276 278 274 266 266 260 255 250 250 250 247 247 245 242
174 154 168 200 224 268 247 234 253 259 255 222 201 187 185 196 201 209 218 222 231 244 253 258 259 267 271 271 269 266 265 265 267 267 270 273 273 271 268 263 260 257 254 254 251 248 247 247 243
150 186 162 134 133 269 265 278 297 253 242 185 168 164 190 203 211 220 230 234 239 249 254 256 263 269 272 270 271 271 271 268 270 271 272 273 273 273 268 263 261 259 255 252 252 250 249 248 244
147 148 124 146 172 240 276 266 245 239 216 203 195 204 214 215 227 237 239 243 249 254 263 269 264 268 275 278 277 281 275 272 272 274 274 275 272 272 273 268 264 263 261 257 255 254 250 251 249
152 157 151 147 167 179 245 262 225 216 206 200 211 216 215 219 228 236 244 250 257 268 273 274 279 283 288 287 283 281 279 277 277 278 278 278 275 272 272 271 267 266 264 261 259 256 252 252 251
181 179 157 169 214 196 205 265 269 237 222 203 220 230 230 230 236 241 251 263 274 280 286 285 286 286 287 287 289 286 281 280 281 280 280 280 277 270 268 273 270 269 267 262 259 258 255 252 248
Height
1494 1496 1497 1499 1503 1513 1511 1503 1497 1495 1494 1494 1494 1494 1497 1503 1506 1514 1514 1512 1513 1513 1513 1513 1513 1513 1513 1512 1512 1512 1512 1512 1513 1513 1513 1513 1514 1514 1515 1515 1515 1515 1515 1516 1516 1516 1516 1517 1517
1495 1496 1498 1499 1507 1516 1510 1501 1497 1494 1494 1494 1495 1496 1498 1504 1506 1509 1510 1512 1512 1513 1513 1513 1512 1512 1512 1511 1511 1511 1511 1511 1511 1512 1512 1512 1512 1513 1513 1513 1514 1514 1514 1514 1514 1515 1515 1515 1515
1494 1496 1498 1501 1508 1510 1504 1497 1495 1493 1493 1493 1495 1497 1501 1505 1507 1509 1510 1511 1512 1512 1512 1512 1512 1511 1511 1510 1510 1510 1510 1510 1510 1510 1510 1510 1511 1511 1511 1512 1512 1512 1512 1513 1513 1513 1513 1513 1514
1495 1497 1499 1504 1504 1501 1497 1495 1493 1492 1493 1493 1495 1500 1503 1507 1508 1509 1509 1510 1511 1511 1511 1511 1510 1510 1509 1509 1508 1508 1508 1508 1508 1508 1508 1508 1508 1508 1509 1509 1509 1510 1510 1510 1511 1511 1511 1511 1512
1494 1496 1502 1506 1502 1497 1494 1493 1493 1493 1494 1495 1496 1501 1504 1507 1508 1508 1509 1510 1510 1510 1510 1510 1509 1509 1508 1507 1507 1506 1506 1506 1505 1505 1505 1505 1506 1506 1506 1506 1506 1507 1507 1508 1508 1508 1509 1509 1509
1494 1496 1506 1507 1501 1496 1494 1493 1493 1493 1495 1496 1497 1501 1505 1507 1507 1508 1508 1509 1509 1509 1509 1508 1508 1507 1506 1506 1505 1504 1504 1503 1503 1503 1503 1502 1502 1503 1503 1503 1503 1503 1504 1504 1505 1505 1506 1506 1507
1494 1498 1502 1500 1499 1497 1494 1493 1493 1494 1495 1496 1497 1500 1504 1506 1506 1507 1507 1508 1508 1508 1507 1507 1506 1505 1505 1504 1503 1502 1502 1501 1500 1500 1500 1499 1499 1499 1499 1499 1500 1500 1500 1501 1501 1502 1502 1503 1504
1492 1497 1497 1498 1497 1496 1494 1493 1494 1494 1495 1497 1497 1499 1502 1504 1505 1506 1506 1507 1507 1506 1506 1505 1504 1504 1503 1502 1501 1500 1499 1499 1498 1497 1497 1497 1496 1496 1496 1496 1496 1496 1496 1497 1497 1498 1498 1499 1500
1492 1500 1500 1496 1495 1495 1493 1493 1494 1494 1495 1496 1496 1498 1499 1502 1503 1504 1505 1505 1505 1505 1504 1503 1503 1502 1501 1500 1499 1498 1497 1496 1495 1495 1494 1494 1493 1493 1493 1492 1492 1492 1493 1493 1493 1494 1494 1495 1496
1492 1500 1496 1493 1493 1493 1493 1493 1493 1494 1494 1495 1496 1497 1499 1500 1501 1502 1502 1502 1503 1503 1502 1502 1501 1500 1499 1498 1497 1495 1494 1493 1493 1492 1491 1491 1490 1489 1489 1489 1489 1488 1489 1489 1489 1489 1490 1491 1491
1490 1494 1493 1492 1492 1492 1492 1493 1493 1493 1494 1493 1493 1495 1497 1498 1499 1500 1500 1501 1501 1501 1500 1500 1499 1497 1496 1495 1494 1493 1492 1491 1490 1489 1488 1487 1487 1486 1486 1485 1485 1485 1484 1485 1485 1485 1485 1486 1486
1490 1491 1491 1491 1491 1492 1492 1492 1492 1491 1490 1491 1492 1493 1494 1496 1497 1497 1498 1499 1499 1499 1498 1498 1497 1495 1494 1492 1491 1490 1488 1487 1486 1486 1485 1484 1483 1482 1482 1481 1481 1480 1480 1480 1480 1480 1481 1481 1482
1490 1490 1490 1490 1491 1491 1491 1491 1491 1488 1488 1489 1491 1492 1492 1493 1495 1496 1496 1497 1497 1497 1496 1495 1494 1493 1491 1490 1488 1487 1486 1485 1483 1482 1481 1480 1479 1478 1478 1477 1477 1476 1476 1476 1476 1476 1476 1476 1476
1489 1489 1490 1490 1490 1490 1490 1489 1490 1484 1486 1487 1488 1489 1490 1491 1492 1493 1494 1494 1494 1494 1494 1493 1492 1491 1489 1488 1486 1485 1483 1482 1481 1480 1478 1477 1476 1474 1474 1473 1472 1472 1471 1471 1471 1471 1471 1471 1471
1489 1490 1490 1488 1488 1488 1490 1489 1485 1481 1483 1484 1485 1486 1487 1488 1489 1490 1491 1491 1492 1492 1491 1490 1489 1488 1487 1485 1484 1482 1481 1479 1478 1476 1475 1473 1472 1471 1469 1469 1468 1467 1467 1467 1466 1466 1466 1466 1466
1490 1493 1494 1487 1486 1487 1492 1489 1479 1479 1480 1481 1482 1483 1484 1485 1486 1487 1488 1489 1489 1489 1489 1488 1487 1485 1484 1482 1481 1479 1478 1476 1475 1473 1471 1470 1468 1467 1465 1464 1463 1463 1463 1462 1462 1461 1461 1460 1460
1494 1496 1493 1488 1485 1486 1488 1486 1477 1477 1477 1478 1478 1479 1481 1482 1483 1484 1485 1486 1486 1486 1486 1485 1483 1482 1481 1479 1477 1476 1474 1473 1471 1469 1468 1466 1464 1463 1461 1460 1459 1459 1458 1458 1457 1456 1456 1455 1454
1494 1494 1490 1488 1485 1486 1486 1482 1475 1474 1475 1474 1474 1475 1477 1478 1479 1481 1482 1483 1483 1483 1483 1481 1480 1479 1477 1475 1474 1472 1470 1469 1467 1465 1464 1462 1460 1459 1457 1455 1454 1454 1453 1452 1452 1452 1451 1450 1450
1486 1488 1488 1486 1483 1485 1483 1478 1472 1470 1470 1470 1470 1471 1472 1474 1476 1478 1479 1480 1480 1479 1479 1478 1476 1475 1473 1471 1469 1467 1465 1464 1462 1461 1459 1458 1456 1454 1452 1450 1449 1449 1448 1447 1447 1446 1445 1445 1445
1485 1488 1489 1486 1484 1484 1482 1476 1468 1465 1464 1463 1465 1466 1468 1470 1472 1474 1475 1476 1476 1476 1475 1474 1473 1471 1470 1468 1466 1464 1462 1459 1458 1456 1454 1453 1451 1449 1447 1446 1444 1443 1442 1442 1442 1441 1440 1439 1440
1486 1488 1487 1488 1486 1484 1484 1475 1467 1462 1460 1460 1461 1463 1464 1466 1468 1469 1471 1472 1472 1472 1471 1470 1469 1467 1466 1464 1462 1459 1457 1455 1453 1450 1448 1447 1446 1444 1442 1441 1439 1438 1437 1436 1436 1436 1435 1434 1435
1486 1483 1484 1486 1491 1493 1490 1488 1469 1463 1460 1458 1458 1459 1460 1463 1464 1466 1467 1468 1468 1468 1468 1467 1465 1464 1462 1460 1457 1455 1452 1449 1447 1445 1443 1441 1440 1438 1436 1435 1433 1432 1431 1430 1430 1430 1430 1429 1428
1482 1482 1484 1487 1492 1497 1494 1495 1473 1463 1460 1457 1455 1455 1457 1459 1461 1462 1463 1464 1465 1465 1464 1463 1461 1460 1458 1455 1453 1450 1448 1445 1442 1440 1437 1435 1433 1431 1430 1428 1426 1425 1424 1423 1423 1423 1423 1423 1422
1480 1484 1489 1495 1499 1497 1489 1494 1474 1464 1455 1452 1452 1452 1454 1456 1458 1459 1460 1461 1461 1461 1460 1459 1457 1455 1453 1451 1448 1446 1443 1440 1437 1434 1431 1428 1426 1424 1423 1421 1420 1418 1417 1416 1416 1415 1416 1416 1415
1480 1489 1497 1495 1502 1492 1484 1487 1470 1454 1450 1448 1448 1450 1452 1454 1455 1456 1457 1457 1457 1457 1456 1455 1453 1451 1449 1446 1444 1441 1438 1435 1431 1428 1425 1422 1419 1417 1415 1413 1412 1410 1409 1409 1408 1408 1407 1408 1407
1479 1482 1490 1489 1491 1487 1482 1480 1460 1448 1445 1445 1446 1448 1450 1451 1452 1453 1454 1454 1453 1453 1452 1450 1448 1446 1444 1441 1438 1435 1432 1429 1426 1423 1419 1416 1413 1410 1408 1406 1404 1403 1402 1401 1401 1400 1399 1399 1399
1479 1483 1483 1493 1497 1494 1483 1474 1458 1445 1445 1444 1445 1446 1448 1449 1450 1450 1451 1451 1450 1449 1448 1446 1444 1441 1439 1436 1433 1429 1426 1423 1419 1416 1413 1409 1406 1403 1400 1398 1396 1395 1394 1393 1393 1392 1391 1391 1391
1474 1478 1486 1491 1491 1487 1480 1474 1461 1447 1445 1445 1446 1445 1446 1447 1448 1448 1448 1448 1447 1446 1444 1442 1440 1437 1434 1431 1427 1424 1420 1417 1413 1409 1406 1402 1399 1396 1393 1390 1389 1387 1386 1385 1384 1384 1383 1383 1383
1475 1478 1480 1488 1489 1488 1482 1466 1447 1444 1443 1444 1444 1443 1444 1445 1445 1445 1445 1444 1443 1442 1440 1438 1435 1432 1429 1426 1422 1417 1414 1410 1406 1403 1399 1395 1392 1389 1386 1384 1381 1380 1378 1377 1376 1375 1375 1374 1374
1470 1472 1477 1481 1487 1490 1488 1466 1440 1440 1440 1441 1441 1441 1442 1442 1443 1442 1442 1441 1439 1438 1435 1433 1430 1427 1424 1420 1416 1412 1407 1403 1399 1396 1392 1389 1385 1382 1380 1377 1375 1373 1371 1369 1368 1367 1366 1366 1365